www.pogodaiklimat.ru

Погода и климат >> Архив погоды >> Иран >> Bandar Deyr


ПОГОДА в Bandar Deyr

  • Прогноз погоды в Bandar Deyr
  • Монитор погоды в Bandar Deyr
  • Климат города

АРХИВ ПОГОДЫ в Bandar Deyr

Время (UTC), дата Ветер
(напр.,м/с)
 
Видим.   Явления Облачность Т
(С)
Тd
(С)
f
(%)
Тe
(С)
Тes
(С)
Комфортность P
(гПа)
Po
(гПа)
Тmin
(С)
Tmax
(С)
R
(мм)
R24
(мм)
S
(см)
00 12.12 СЗ 7 10 км ясно +17.6 +10.9 65 +17 +17 1017.3 1016.8
03 12.12 СЗ 8 10 км ясно +17.4 +9.8 61 +16 +16 1017.6 1017.1 +17.0
06 12.12 С 3 10 км ясно +20.9 1018.8 1018.3
09 12.12 СЗ 3 10 км ясно +23.0 +8.9 41 +24 +32 комфорт 1018.3 1017.8
12 12.12 Ю 1 10 км ясно +26.4 1016.5 1016.0
15 12.12 СЗ 2 10 км ясно +22.0 +9.1 44 +23 +23 комфорт 1018.1 1017.6 +27.4
18 12.12 СЗ 3 10 км ясно +19.0 +10.4 57 +20 +20 1018.1 1017.6
21 12.12 С 2 10 км ясно +17.1 +10.3 64 +17 +17 1018.3
00 13.12 С 2 10 км ясно +16.9 +9.6 62 +17 +17 1019.1 1018.6
06 13.12 СЗ 2 10 км ясно +21.8 1021.5 1021.0
09 13.12 Ю 2 10 км ясно +25.4 +11.7 42 +27 +35 жарко 1020.3 1019.8
12 13.12 ЮЗ 2 10 км ясно +25.4 1019.0 1018.5
15 13.12 С 2 10 км ясно +21.8 +10.9 50 +24 +24 комфорт 1019.9 1019.4 +26.2
18 13.12 СЗ 2 10 км ясно +19.8 +10.6 55 +22 +22 комфорт 1020.8 1020.3
21 13.12 СЗ 2 10 км ясно +18.4 +9.3 55 +19 +19 1020.7 1020.1
00 14.12 СЗ 2 10 км ясно +15.0 +8.7 66 +15 +15 1020.4 1019.9
03 14.12 С 2 10 км ясно +14.2 +8.3 68 +14 +14 1020.6 1020.1 +13.5
06 14.12 штиль 0 10 км ясно +14.8 1022.5 1022.0
09 14.12 штиль 0 10 км ясно +25.4 +11.7 42 +27 +38 жарко 1020.8 1020.3
12 14.12 ЮВ 2 10 км ясно +25.0 1020.1 1019.6
15 14.12 штиль 0 10 км ясно +23.0 +11.8 49 +25 +25 комфорт 1020.7 1020.2 +25.8
18 14.12 штиль 0 10 км ясно +19.6 +10.3 55 +21 +21 комфорт 1021.9 1021.4
00 15.12 штиль 0 10 км ясно +15.2 +7.5 60 +15 +15 1020.7 1020.2
03 15.12 штиль 0 10 км ясно +16.2 +8.1 59 +16 +16 1020.5 1020.0 +14.6
06 15.12 С 2 10 км ясно +18.6 1022.6 1022.1
12 15.12 ЮЗ 3 10 км ясно +25.0 1019.3 1018.8
15 15.12 СЗ 3 10 км ясно +23.2 +10.0 43 +25 +25 комфорт 1020.6 1020.1 +26.0
18 15.12 СЗ 4 10 км ясно +20.2 +12.8 62 +22 +22 комфорт 1021.8 1021.3
21 15.12 СЗ 7 10 км ясно +18.6 +12.5 68 +19 +19 1021.6 1020.8
00 16.12 СЗ 4 10 км ясно +17.8 +11.2 65 +18 +18 1021.3 1020.8
03 16.12 СЗ 5 10 км ясно +17.6 +9.6 59 +17 +17 1022.1 1021.6 +17.4
06 16.12 СЗ 3 10 км ясно +20.4 1023.4 1024.0
09 16.12 СЗ 3 10 км ясно +26.2 +17.3 58 +30 +37 душно 1023.7 1022.0
12 16.12 СЗ 2 10 км ясно +26.2 1021.5 1021.0
15 16.12 СЗ 2 10 км ясно +22.4 +10.9 48 +24 +24 комфорт 1022.0 1021.5 +27.8
18 16.12 СЗ 3 10 км ясно +20.2 +7.2 43 +21 +21 комфорт 1023.1 1022.6
21 16.12 штиль 0 10 км ясно +18.2 +13.3 73 +18 +18 1022.1
06 17.12 СЗ 2 10 км ясно +18.8 1023.0 1022.5
09 17.12 штиль 0 12 км ясно +25.4 +8.8 35 +26 +37 жарко 1021.9 1021.4
12 17.12 ЮВ 2 12 км ясно +25.2 1020.2 1019.7
15 17.12 ЮВ 2 10 км ясно +23.2 +12.2 50 +26 +26 жарко 1020.5 1020.0 +26.5
18 17.12 ЮВ 2 10 км ясно +21.0 +10.8 52 +24 +24 комфорт 1021.8 1021.3
00 18.12 штиль 0 10 км ясно +17.8 +11.1 65 +18 +18 1020.4 1019.9
03 18.12 С 2 10 км ясно +15.6 +9.8 68 +16 +16 1021.5 1021.0 +15.5
06 18.12 СЗ 2 10 км ясно +18.8 1023.5 1023.0
09 18.12 СВ 2 10 км 3/3 1050 м
[Sc]
+24.0 +11.7 46 +26 +32 жарко 1022.2 1021.7
12 18.12 Ю 2 10 км ясно +24.4 1020.0 1019.5
15 18.12 З 2 10 км ясно +21.8 +13.4 59 +25 +25 комфорт 1020.5 1020.0 +25.0
18 18.12 СЗ 2 10 км ясно +19.8 +13.5 67 +22 +22 комфорт 1021.3 1020.8
21 18.12 СЗ 3 10 км ясно +18.8 +13.0 69 +20 +20 1020.5

 

Местоположение метеостанции Bandar Deyr (Иран): широта 27.83 долгота 51.93 высота над уровнем моря 4 м.

В архиве по умолчанию представлена погода в Bandar Deyr за последнюю неделю. Архивные данные за месяц целиком и за предыдущие месяцы, начиная с января 2011 года, Вы можете получить, выбрав интересующий диапазон дат из раскрывающегося списка и нажав кнопку "Ввод!".


*Определитесь, кто Вы:
робот инопланетянин человек

Внимание! Время в таблицах - всемирное. Для получения местного времени необходимо прибавить поправку, которая в Bandar Deyr равна 3.5 ч.

Смотрите также архив погоды в соседних городах и на ближайших метеорологических станциях:

Погода в Bushehr (Иран) (163 км)
Погода в Bushehr Airport (Иран) (167 км)
Погода в Shiraz (Иран) (198 км)
Погода в Fasa (Иран) (213 км)
Погода в Bahrain (Бахрейн) (215 км)
Погода в Khark (Иран) (224 км)
Погода в Dhahran (Саудовская Аравия) (246 км)
Погода в Kish Island (Иран) (251 км)
Погода в King Fahd Int Airport (Саудовская Аравия) (259 км)
Погода в Hamad Int Airport (Катар) (287 км)

Пояснения к столбцам:

Ветер - указаны скорость ветра в м/с - средняя за 10 мин, порывы в срок и между сроками (в фигурных скобках) и направление, откуда дует ветер: С - северный, СВ - северо-восточный, В - восточный, ЮВ - юго-восточный, Ю - южный, ЮЗ - юго-западный, З - западный, СЗ - северо-западный.
Видимость - горизонтальная дальность видимости в метрах или километрах. При видимости от 1 до 10 км при отсутствии осадков обычно наблюдается дымка, при ухудшении видимости до 1 км и менее - туман. В сухую погоду видимость может ухудшаться дымом, пылью или мглою.
Явления - указаны атмосферные явления, наблюдавшиеся в срок или в последний час перед сроком; фигурными скобками обозначены явления, наблюдавшиеся между сроками (за 1-3 часа до срока); квадратными скобками обозначены град или гололедные отложения с указанием их диаметра в мм.
Облачность - указаны через наклонную черту общая и нижняя облачность в баллах и высота нижней границы облаков в метрах; квадратными скобками обозначены формы облаков: Ci - перистые, Cs - перисто-слоистые, Cc - перисто-кучевые, Ac - высококучевые, As - высокослоистые, Sc - слоисто-кучевые, Ns - слоисто-дождевые, Cu - кучевые, Cb - кучево-дождевые. Подробнее классификацию облаков см. в Атласе облаков (PDF).
T - Температура воздуха - температура, измеренная на высоте 2 м над землей.
Td - Температура точки росы - температура, при понижении до которой содержащийся в воздухе водяной пар достигнет насыщения.
f - Относительная влажность воздуха - влажноcть воздуха, измеренная на высоте 2 м над землей.
Te - Эффективная температура - температура, которую ощущает одетый по сезону человек в тени. Характеристика душности погоды. При расчете учитывается влияние влажности воздуха и скорости ветра на теплоощущения человека.
Tes - Эффективная температура на солнце - температура, которую ощущает человек, с поправкой на солнечный нагрев. Характеристика знойности погоды. Зависит от высоты солнца над горизонтом, облачности и скорости ветра. Ночью, в пасмурную погоду, а также при ветре 12 м/с и более поправка равна нулю.
P - Атмосферное давление - приведенное к уровню моря атмосферное давление.
Po - Атмосферное давление - измеренное на уровне метеостанции атмосферное давление.
Tmin - Минимальная температура - минимум температуры воздуха на высоте 2 м над землей.
Tmax - Максимальная температура - максимум температуры воздуха на высоте 2 м над землей.
R - Количество осадков - Количество выпавших осадков за период времени, мм. При наведении курсора мыши на число - период времени, за который выпало указанное количество осадков.
R24 - Количество осадков - Количество выпавших осадков за 24 часа, мм.
S - Снежный покров - Высота снежного покрова, см. При наведении курсора мыши на число - состояние снежного покрова и степень покрытия местности в баллах.